Kalaeloa, HI

1:08 PM HST on January 22, 2018 (GMT -1000)
Kalaeloa (John Rodgers Field)

Weather History for PHJR - November, 2012

Change the Weather History Date:

Friday, November 2, 2012

  Actual Average (PHHI) Record (PHHI)
Temperature  
Mean Temperature 72 °F -  
Max Temperature 81 °F 78 °F 84 °F (1999)
Min Temperature 64 °F 66 °F 62 °F (2012)
Cooling Degree Days 8    
Growing Degree Days 22 (Base 50)    
Moisture  
Dew Point 64 °F    
Average Humidity 71    
Maximum Humidity 93    
Minimum Humidity 58    
Precipitation  
Precipitation 0.00 in - - ()
Sea Level Pressure  
Sea Level Pressure 29.98 in    
Wind  
Wind Speed 4 mph (SE)    
Max Wind Speed 14 mph    
Max Gust Speed -    
Visibility 10 miles    
Events      
Averages and records for this station are not official NWS values.
T = Trace of Precipitation, MM = Missing Value Source: NWS Daily Summary

Daily Weather History Graph

Daily Weather History Graph

Search for Another Location

Airport or City:

Trip Planner

Search our weather history database for the weather conditions in past years. The results will help you decide how hot, cold, wet, or windy it might be!

Date:

Astronomy

Nov. 02, 2012 Rise Set
Actual Time 6:36 AM HST 5:55 PM HST
Civil Twilight 6:13 AM HST 6:18 PM HST
Nautical Twilight 5:46 AM HST 6:44 PM HST
Astronomical Twilight 5:20 AM HST 7:10 PM HST
Moon 9:05 PM HST (11/2) 9:50 AM HST (11/2)
Length of Visible Light 12h 05m
Length of Day
11h 19m
Waning Gibbous, 86% of the Moon is Illuminated
Nov 2
Waning Gibbous
Nov 6
Last Quarter
Nov 13
New
Nov 20
First Quarter
Nov 28
Full

Hourly Weather History & Observations

Time (HST) Temp. Heat Index Dew Point Humidity Pressure Visibility Wind Dir Wind Speed Gust Speed Precip Events Conditions
12:53 AM 71.1 °F - 62.1 °F 73% 30.02 in 10.0 mi Calm Calm - N/A   Mostly Cloudy
1:53 AM 71.1 °F - 62.1 °F 73% 30.01 in 10.0 mi Variable 3.5 mph - N/A   Overcast
2:53 AM 71.1 °F - 62.1 °F 73% 30.00 in 10.0 mi Calm Calm - N/A   Mostly Cloudy
3:53 AM 69.1 °F - 62.1 °F 78% 30.00 in 10.0 mi Calm Calm - N/A   Clear
4:53 AM 66.9 °F - 61.0 °F 81% 29.99 in 10.0 mi Calm Calm - N/A   Clear
5:53 AM 64.9 °F - 61.0 °F 87% 30.00 in 10.0 mi Calm Calm - N/A   Clear
6:53 AM 64.0 °F - 62.1 °F 93% 30.00 in 10.0 mi Calm Calm - N/A   Clear
7:53 AM 71.1 °F - 64.0 °F 78% 30.01 in 10.0 mi Calm Calm - N/A   Clear
8:53 AM 75.9 °F - 63.0 °F 64% 30.01 in 10.0 mi Variable 4.6 mph - N/A   Clear
9:53 AM 77.0 °F - 64.0 °F 64% 30.01 in 10.0 mi SSE 8.1 mph - N/A   Clear
10:53 AM 78.1 °F - 64.0 °F 62% 29.99 in 10.0 mi SE 9.2 mph - N/A   Clear
11:53 AM 80.1 °F 81.7 °F 64.0 °F 58% 29.97 in 10.0 mi SSE 10.4 mph - N/A   Clear
12:53 PM 81.0 °F 82.7 °F 64.9 °F 58% 29.94 in 10.0 mi SSE 12.7 mph - N/A   Clear
1:53 PM 81.0 °F 82.7 °F 64.9 °F 58% 29.91 in 10.0 mi SSE 13.8 mph - N/A   Clear
2:53 PM 81.0 °F 83.0 °F 66.0 °F 60% 29.90 in 10.0 mi SSE 11.5 mph - N/A   Clear
3:53 PM 80.1 °F 82.1 °F 66.0 °F 62% 29.90 in 10.0 mi SSE 11.5 mph - N/A   Clear
4:53 PM 78.1 °F - 64.0 °F 62% 29.92 in 10.0 mi SSE 11.5 mph - N/A   Clear
5:53 PM 75.9 °F - 64.9 °F 69% 29.94 in 10.0 mi SSE 8.1 mph - N/A   Clear
6:53 PM 75.9 °F - 64.9 °F 69% 29.96 in 10.0 mi SSE 8.1 mph - N/A   Clear
7:53 PM 75.0 °F - 66.0 °F 73% 29.99 in 10.0 mi East 3.5 mph - N/A   Partly Cloudy
8:53 PM 73.0 °F - 64.9 °F 76% 30.00 in 10.0 mi Calm Calm - N/A   Clear
9:53 PM 71.1 °F - 64.0 °F 78% 30.00 in 10.0 mi ENE 3.5 mph - N/A   Scattered Clouds
10:53 PM 72.0 °F - 64.0 °F 76% 30.00 in 10.0 mi Calm Calm - N/A   Overcast
11:27 PM 71.6 °F - 64.4 °F 78% 29.98 in 10.0 mi Calm Calm - N/A   Overcast
11:34 PM 71.6 °F - 64.4 °F 78% 29.98 in 10.0 mi Calm Calm - N/A   Mostly Cloudy
11:53 PM 72.0 °F - 64.9 °F 78% 30.00 in 10.0 mi South 4.6 mph - N/A   Partly Cloudy